• In Belarus
  • List of Countries
  • For 7 days
  • Water Temperature
  • Satellite Maps
  • Weather Map
  • Weather Widgets
  • user-avatar
    Login

    Hourly Weather La Massana

    Today, 23 November, Thursday

    Time Temperature Precipitation Wind Pressure Humidity
    00:00 -1°C° 0 mm 2 mps 607 mmHg 45%
    01:00 -1°C° 0 mm 2 mps 607 mmHg 44%
    02:00 +1°C° 0 mm 1 mps 607 mmHg 43%
    03:00 +1°C° 0 mm 1 mps 607 mmHg 42%
    04:00 +1°C° 0 mm 1 mps 607 mmHg 43%
    05:00 +2°C° 0 mm 1 mps 608 mmHg 43%
    06:00 +1°C° 0 mm 1 mps 608 mmHg 47%
    07:00 +3°C° 0 mm 1 mps 609 mmHg 46%
    08:00 +5°C° 0 mm 1 mps 609 mmHg 45%
    09:00 +6°C° 0 mm 1 mps 610 mmHg 45%
    10:00 +7°C° 0 mm 2 mps 611 mmHg 43%
    11:00 +8°C° 0 mm 2 mps 612 mmHg 41%
    12:00 +10°C° 0 mm 2 mps 612 mmHg 39%
    13:00 +9°C° 0 mm 2 mps 612 mmHg 42%
    14:00 +9°C° 0 mm 2 mps 612 mmHg 46%
    15:00 +8°C° 0 mm 2 mps 611 mmHg 49%
    16:00 +6°C° 0 mm 2 mps 611 mmHg 55%
    17:00 +5°C° 0 mm 1 mps 610 mmHg 60%
    18:00 +3°C° 0 mm 1 mps 610 mmHg 66%
    19:00 +3°C° 0 mm 1 mps 610 mmHg 66%
    20:00 +3°C° 0 mm 1 mps 610 mmHg 65%
    21:00 +2°C° 0 mm 1 mps 610 mmHg 65%
    22:00 +2°C° 0 mm 1 mps 610 mmHg 66%
    23:00 +2°C° 0 mm 1 mps 610 mmHg 67%

    Tomorrow, 24 November, Friday

    Time Temperature Precipitation Wind Pressure Humidity
    00:00 +2°C° 0 mm 1 mps 610 mmHg 68%
    01:00 +2°C° 0 mm 1 mps 610 mmHg 69%
    02:00 +2°C° 0 mm 1 mps 610 mmHg 69%
    03:00 +2°C° 0 mm 1 mps 609 mmHg 69%
    04:00 +3°C° 0 mm 1 mps 610 mmHg 68%
    05:00 +3°C° 0 mm 1 mps 610 mmHg 68%
    06:00 +3°C° 0 mm 1 mps 610 mmHg 67%
    07:00 +4°C° 0.1 mm 1 mps 611 mmHg 66%
    08:00 +4°C° 0.1 mm 1 mps 611 mmHg 65%
    09:00 +5°C° 0.1 mm 1 mps 612 mmHg 65%
    10:00 +6°C° 0 mm 1 mps 612 mmHg 63%
    11:00 +6°C° 0 mm 2 mps 612 mmHg 62%
    12:00 +7°C° 0 mm 2 mps 612 mmHg 61%
    13:00 +7°C° 0 mm 2 mps 612 mmHg 63%
    14:00 +7°C° 0 mm 2 mps 611 mmHg 66%
    15:00 +7°C° 0 mm 2 mps 611 mmHg 68%
    16:00 +5°C° 0 mm 2 mps 610 mmHg 74%
    17:00 +3°C° 0 mm 2 mps 610 mmHg 81%
    18:00 +3°C° 0 mm 1 mps 609 mmHg 87%
    19:00 +3°C° 0 mm 1 mps 609 mmHg 84%
    20:00 +2°C° 0 mm 1 mps 609 mmHg 81%
    21:00 +2°C° 0 mm 1 mps 609 mmHg 78%
    22:00 +3°C° 0 mm 1 mps 609 mmHg 78%
    23:00 +2°C° 0 mm 2 mps 609 mmHg 78%

    Day after tomorrow, 25 November, Saturday

    Time Temperature Precipitation Wind Pressure Humidity
    00:00 +2°C° 0 mm 2 mps 609 mmHg 78%
    01:00 +2°C° 0 mm 2 mps 608 mmHg 80%
    02:00 +2°C° 0 mm 2 mps 608 mmHg 81%
    03:00 +3°C° 0 mm 1 mps 608 mmHg 82%
    04:00 +2°C° 0.2 mm 2 mps 608 mmHg 85%
    05:00 +1°C° 0.2 mm 2 mps 608 mmHg 88%
    06:00 +1°C° 0.2 mm 2 mps 608 mmHg 91%
    07:00 +2°C° 0.5 mm 2 mps 609 mmHg 89%
    08:00 +2°C° 0.5 mm 2 mps 610 mmHg 87%
    09:00 +1°C° 0.5 mm 3 mps 610 mmHg 85%
    10:00 +2°C° 0.1 mm 3 mps 611 mmHg 81%
    11:00 +2°C° 0.1 mm 3 mps 611 mmHg 77%
    12:00 +3°C° 0.1 mm 3 mps 612 mmHg 72%
    13:00 +2°C° 0 mm 3 mps 612 mmHg 71%
    14:00 +2°C° 0 mm 3 mps 612 mmHg 70%
    15:00 +1°C° 0 mm 3 mps 612 mmHg 69%
    16:00 0°C° 0 mm 3 mps 612 mmHg 73%
    17:00 -2°C° 0 mm 3 mps 612 mmHg 78%
    18:00 -4°C° 0 mm 3 mps 612 mmHg 83%
    19:00 -4°C° 0 mm 3 mps 612 mmHg 82%
    20:00 -4°C° 0 mm 2 mps 612 mmHg 82%
    21:00 -4°C° 0 mm 2 mps 613 mmHg 81%
    22:00 -4°C° 0 mm 2 mps 613 mmHg 80%
    23:00 -5°C° 0 mm 2 mps 613 mmHg 80%

    26 November, Sunday

    Time Temperature Precipitation Wind Pressure Humidity
    00:00 -5°C° 0 mm 2 mps 612 mmHg 79%
    01:00 -5°C° 0 mm 2 mps 612 mmHg 79%
    02:00 -6°C° 0 mm 2 mps 612 mmHg 79%
    03:00 -6°C° 0 mm 2 mps 612 mmHg 79%
    04:00 -6°C° 0 mm 2 mps 612 mmHg 79%
    05:00 -6°C° 0 mm 2 mps 612 mmHg 79%
    06:00 -7°C° 0 mm 2 mps 612 mmHg 79%
    07:00 -5°C° 0 mm 2 mps 613 mmHg 73%
    08:00 -4°C° 0 mm 2 mps 614 mmHg 68%
    09:00 -3°C° 0 mm 2 mps 615 mmHg 63%
    10:00 -2°C° 0 mm 2 mps 615 mmHg 58%
    11:00 -1°C° 0 mm 2 mps 616 mmHg 53%
    12:00 +1°C° 0 mm 2 mps 616 mmHg 48%
    13:00 +1°C° 0 mm 2 mps 616 mmHg 49%
    14:00 +1°C° 0 mm 2 mps 616 mmHg 51%
    15:00 +1°C° 0 mm 2 mps 615 mmHg 52%
    16:00 -2°C° 0 mm 2 mps 615 mmHg 61%
    17:00 -4°C° 0 mm 2 mps 614 mmHg 69%
    18:00 -4°C° 0 mm 1 mps 613 mmHg 77%
    19:00 -4°C° 0 mm 1 mps 613 mmHg 74%
    20:00 -4°C° 0 mm 1 mps 614 mmHg 71%
    21:00 -4°C° 0 mm 1 mps 614 mmHg 68%
    22:00 -4°C° 0 mm 1 mps 614 mmHg 64%
    23:00 -4°C° 0 mm 1 mps 613 mmHg 61%

    27 November, Monday

    Time Temperature Precipitation Wind Pressure Humidity
    00:00 -4°C° 0 mm 1 mps 613 mmHg 58%
    01:00 -4°C° 0 mm 1 mps 613 mmHg 57%
    02:00 -4°C° 0 mm 1 mps 613 mmHg 57%
    03:00 -4°C° 0 mm 1 mps 613 mmHg 56%
    04:00 -4°C° 0 mm 1 mps 613 mmHg 55%
    05:00 -4°C° 0 mm 1 mps 613 mmHg 54%
    06:00 -4°C° 0 mm 1 mps 612 mmHg 53%
    07:00 -3°C° 0 mm 1 mps 613 mmHg 49%
    08:00 -1°C° 0 mm 1 mps 614 mmHg 45%
    09:00 -1°C° 0 mm 0 mps 614 mmHg 41%
    10:00 +1°C° 0 mm 1 mps 615 mmHg 39%
    11:00 +3°C° 0 mm 1 mps 615 mmHg 36%
    12:00 +4°C° 0 mm 1 mps 615 mmHg 34%
    13:00 +4°C° 0 mm 1 mps 614 mmHg 38%
    14:00 +3°C° 0 mm 1 mps 614 mmHg 41%
    15:00 +3°C° 0 mm 1 mps 613 mmHg 45%
    16:00 +1°C° 0 mm 1 mps 612 mmHg 52%
    17:00 -1°C° 0 mm 1 mps 611 mmHg 60%
    18:00 -3°C° 0 mm 1 mps 611 mmHg 68%
    19:00 -3°C° 0 mm 1 mps 610 mmHg 67%
    20:00 -3°C° 0 mm 1 mps 610 mmHg 66%
    21:00 -3°C° 0 mm 1 mps 610 mmHg 65%
    22:00 -3°C° 0 mm 1 mps 610 mmHg 64%
    23:00 -3°C° 0 mm 1 mps 610 mmHg 64%

    28 November, Tuesday

    Time Temperature Precipitation Wind Pressure Humidity
    00:00 -3°C° 0 mm 1 mps 610 mmHg 63%
    01:00 -3°C° 0 mm 1 mps 609 mmHg 61%
    02:00 -3°C° 0 mm 1 mps 609 mmHg 59%
    03:00 -3°C° 0 mm 1 mps 609 mmHg 57%
    04:00 -3°C° 0 mm 1 mps 608 mmHg 56%
    05:00 -3°C° 0 mm 1 mps 608 mmHg 54%
    06:00 -4°C° 0 mm 1 mps 608 mmHg 52%
    07:00 -2°C° 0 mm 1 mps 608 mmHg 48%
    08:00 -1°C° 0 mm 0 mps 609 mmHg 44%
    09:00 0°C° 0 mm 0 mps 610 mmHg 39%
    10:00 +3°C° 0 mm 1 mps 609 mmHg 38%
    11:00 +4°C° 0 mm 1 mps 609 mmHg 36%
    12:00 +5°C° 0 mm 1 mps 609 mmHg 35%
    13:00 +4°C° 0 mm 1 mps 608 mmHg 39%
    14:00 +4°C° 0 mm 1 mps 608 mmHg 43%
    15:00 +3°C° 0 mm 1 mps 607 mmHg 47%
    16:00 +1°C° 0 mm 1 mps 606 mmHg 56%
    17:00 -1°C° 0 mm 1 mps 605 mmHg 65%
    18:00 -4°C° 0 mm 0 mps 604 mmHg 74%
    19:00 -3°C° 0 mm 1 mps 604 mmHg 75%
    20:00 -3°C° 0 mm 1 mps 603 mmHg 75%
    21:00 -4°C° 0 mm 1 mps 603 mmHg 76%
    22:00 -4°C° 0 mm 1 mps 602 mmHg 77%
    23:00 -4°C° 0 mm 1 mps 602 mmHg 78%
    Show more